National Weather Service Raw Text Product

Displaying AFOS PIL: RWRIA Received: 2018-06-14 06:00 UTC


202 
ASUS43 KDMX 140606
RWRIA 

WEATHER ROUNDUP FOR IOWA
NATIONAL WEATHER SERVICE DES MOINES IA
100 AM CDT THU JUN 14 2018

NOTE: "FAIR" INDICATES FEW OR NO CLOUDS BELOW 12,000 FEET WITH NO
SIGNIFICANT WEATHER AND/OR OBSTRUCTIONS TO VISIBILITY.

* - THESE STATIONS ARE NOT NWS STATIONS...THUS NOT UNDER NWS
QUALITY CONTROL.  THEY ALSO DO NOT REPORT WEATHER SUCH 
AS PRECIPITATION OR FOG.  

IAZ001>003-012>014-020>022-031>034-043>046-140700-
   NORTHWEST IOWA
  
CITY           SKY/WX    TMP DP  RH WIND       PRES   REMARKS
CARROLL *      CLOUDY    66  59  77 SE6       29.99S                  
CHEROKEE *     CLOUDY    66  55  67 SE6       29.99S                  
DENISON *      CLOUDY    68  55  64 SE12G17   29.98S                  
LE MARS *      CLOUDY   N/A N/A N/A SE9       29.95F                  
ORANGE CITY *  PTCLDY    64  57  77 E3        29.97F                  
SHELDON *      CLOUDY    63  59  88 E9        29.96F                  
SIOUX CITY     CLOUDY    66  57  72 S16       29.93F                  
6HR MIN TEMP:  64; 6HR MAX TEMP:  68; 6HR PCP:  0.02;                

SPENCER        CLOUDY    63  57  81 E6        30.01R                  
6HR MIN TEMP:  61; 6HR MAX TEMP:  69; 6HR PCP: TRACE;                

STORM LAKE *   CLOUDY    66  55  68 SE5       30.01R                  
$$
 
IAZ055>058-069>071-079>083-090>094-140700-
   SOUTHWEST IOWA
  
CITY           SKY/WX    TMP DP  RH WIND       PRES   REMARKS
ATLANTIC *     CLOUDY    70  55  60 SE7       29.97F                  
AUDUBON *      CLOUDY    66  57  72 SE7       30.00F                  
CLARINDA *     CLOUDY    68  59  73 S6        30.01F                  
COUNCIL BLFS * CLOUDY    70  61  73 S12       29.95F                  
CRESTON *      PTCLDY    68  57  68 S10       30.02S                  
HARLAN  *      PTCLDY    70  55  60 SE9       29.99F                  
LAMONI         CLEAR     68  57  68 SE12      30.00F                  
6HR MIN TEMP:  66; 6HR MAX TEMP:  75;                                

RED OAK *      MOCLDY    70  57  64 MISG      29.97F                  
SHENANDOAH *   CLOUDY    70  57  64 SE12G18   29.97F                  
$$
 
IAZ047>049-059>061-072>074-084-140700-
   CENTRAL IOWA
  
CITY           SKY/WX    TMP DP  RH WIND       PRES   REMARKS
AMES           PTCLDY    66  56  70 NE3       30.02R                  
6HR MIN TEMP:  65; 6HR MAX TEMP:  77; 6HR PCP: TRACE;                

ANKENY *       CLOUDY    64  59  82 CALM      30.03S                  
BOONE *        CLOUDY    66  59  77 SE5       30.01S                  
CHARITON *     CLEAR     64  55  72 SE5       30.02R                  
DES MOINES     LGT RAIN  69  54  58 SE6       30.01R                  
6HR MIN TEMP:  68; 6HR MAX TEMP:  77; 6HR PCP: TRACE;                

GRINNELL*      CLOUDY    67  53  61 SE5       30.05R                  
KNOXVILLE *    CLOUDY    66  54  63 SE6       30.01R                  
MARSHALLTOWN   PTCLDY    67  55  65 SE3       30.03R                  
6HR MIN TEMP:  67; 6HR MAX TEMP:  79; 6HR PCP: TRACE;                

NEWTON *       CLOUDY    63  55  77 SE6       30.04R                  
PELLA *        CLOUDY    64  55  70 CALM      30.04R                  
PERRY *        MOCLDY    65  62  89 SE5       30.01S                  
$$
 
IAZ004>006-015-016-023>025-035-036-140700-
   NORTH CENTRAL IOWA
  
CITY           SKY/WX    TMP DP  RH WIND       PRES   REMARKS
ALGONA *       CLOUDY    66  55  68 SE5       30.02S                  
CLARION *      CLOUDY    66  57  72 SE6       30.03S                  
ESTHERVILLE    CLOUDY    61  54  77 S5        30.01S                  
6HR MIN TEMP:  61; 6HR MAX TEMP:  70; 6HR PCP: TRACE;                

FORT DODGE *   CLOUDY    64  61  90 E3        30.02                   
MASON CITY     CLOUDY    64  58  80 CALM      30.05S                  
6HR MIN TEMP:  63; 6HR MAX TEMP:  74;                                

FOREST CITY *  MOCLDY    61  57  88 CALM      30.04S                  
WEBSTER CITY * CLOUDY    66  55  68 E3        30.00S                  
IOWA FALLS *   FAIR      65  57  76 SE3       30.05S                  
$$

IAZ007>011-017>019-026>030-037>042-050>054-066-140700-
   NORTHEAST IOWA
  
CITY           SKY/WX    TMP DP  RH WIND       PRES   REMARKS
CEDAR RAPIDS   FAIR      64  59  83 S3        30.03R                  
6HR MIN TEMP:  61; 6HR MAX TEMP:  78;                                

CHARLES CITY * FAIR      63  55  77 S6        30.05R                  
CLINTON *      FAIR      63  58  83 CALM      30.03F                  
DECORAH *      FAIR      61  57  88 CALM      30.03R                  
DUBUQUE        FAIR      63  56  78 CALM      30.04R                  
6HR MIN TEMP:  60; 6HR MAX TEMP:  73;                                

MONTICELLO *   MOCLDY    64  61  88 CALM      30.03R                  
OELWEIN *      CLOUDY    64  59  82 SW5       30.06R                  
WATERLOO       FAIR      66  55  67 S3        30.04R                  
6HR MIN TEMP:  64; 6HR MAX TEMP:  77;                                

$$
 
IAZ064-065-067-068-078-140700-
   EAST CENTRAL IOWA
  
CITY           SKY/WX    TMP DP  RH WIND       PRES   REMARKS
DAVENPORT      FAIR      63  57  81 SE5       30.03F                  
6HR MIN TEMP:  60; 6HR MAX TEMP:  76;                                

IOWA CITY      FAIR      68  56  65 SE3       30.04R                  
6HR MIN TEMP:  64; 6HR MAX TEMP:  79;                                

MT. PLEASANT * CLOUDY    59  52  77 SE7       30.02F                  
MUSCATINE *      N/A    N/A N/A N/A MISG        N/A                   
QUAD CITIES    FAIR      62  57  83 CALM      30.02F                  
6HR MIN TEMP:  59; 6HR MAX TEMP:  78;                                

$$
 
IAZ062-063-075>077-085>089-095>099-140700-
   SOUTHEAST IOWA
  
CITY           SKY/WX    TMP DP  RH WIND       PRES   REMARKS
BURLINGTON     CLEAR     67  52  58 CALM      30.03F                  
6HR MIN TEMP:  62; 6HR MAX TEMP:  80;                                

FAIRFIELD *    CLOUDY    64  52  63 SE7       30.01F                  
FORT MADISON * CLEAR     64  54  68 CALM      30.05S                  
KEOKUK *       CLEAR     64  52  63 SE8       30.02F                  
OSKALOOSA *    FAIR      62  55  77 SE6       30.03R                  
CENTERVILLE *    N/A     59  57  94 CALM      30.03F                  
OTTUMWA        CLOUDY    64  52  64 SE7       30.02S                  
6HR MIN TEMP:  60; 6HR MAX TEMP:  79;                                

WASHINGTON *   CLOUDY    64  57  77 SE5       30.04R                  
$$

ABBREVIATIONS USED IN REMARKS
   TC - TEMPERATURES IN CELSIUS
  WCI - WIND CHILL INDEX
   HX - HEAT INDEX
  VSB - VISIBILITY  
$$

  

687 
ASUS43 KDMX 140601
RWRIA 

WEATHER ROUNDUP FOR IOWA
NATIONAL WEATHER SERVICE DES MOINES IA
100 AM CDT THU JUN 14 2018

NOTE: "FAIR" INDICATES FEW OR NO CLOUDS BELOW 12,000 FEET WITH NO
SIGNIFICANT WEATHER AND/OR OBSTRUCTIONS TO VISIBILITY.

* - THESE STATIONS ARE NOT NWS STATIONS...THUS NOT UNDER NWS
QUALITY CONTROL.  THEY ALSO DO NOT REPORT WEATHER SUCH 
AS PRECIPITATION OR FOG.  

IAZ001>003-012>014-020>022-031>034-043>046-140700-
   NORTHWEST IOWA
  
CITY           SKY/WX    TMP DP  RH WIND       PRES   REMARKS
CARROLL *      CLOUDY    66  59  77 SE6       29.99S                  
CHEROKEE *     CLOUDY    66  55  67 SE6       29.99S                  
DENISON *      CLOUDY    68  55  64 SE12G17   29.98S                  
LE MARS *      CLOUDY   N/A N/A N/A SE9       29.95F                  
ORANGE CITY *  PTCLDY    64  57  77 E3        29.97F                  
SHELDON *      CLOUDY    63  59  88 E9        29.96F                  
SIOUX CITY     CLOUDY    66  57  72 S16       29.93F                  
6HR MIN TEMP:  64; 6HR MAX TEMP:  68; 6HR PCP:  0.02;                

SPENCER        CLOUDY    63  57  81 E6        30.01R                  
6HR MIN TEMP:  61; 6HR MAX TEMP:  69; 6HR PCP: TRACE;                

STORM LAKE *   CLOUDY    66  55  68 SE5       30.01R                  
$$
 
IAZ055>058-069>071-079>083-090>094-140700-
   SOUTHWEST IOWA
  
CITY           SKY/WX    TMP DP  RH WIND       PRES   REMARKS
ATLANTIC *     CLOUDY    70  55  60 SE7       29.97F                  
AUDUBON *      CLOUDY    66  57  72 SE7       30.00F                  
CLARINDA *     CLOUDY    68  59  73 S6        30.01F                  
COUNCIL BLFS * CLOUDY    70  61  73 S12       29.95F                  
CRESTON *      PTCLDY    68  57  68 S10       30.02S                  
HARLAN  *      PTCLDY    70  55  60 SE9       29.99F                  
LAMONI         CLEAR     68  57  68 SE12      30.00F                  
6HR MIN TEMP:  66; 6HR MAX TEMP:  75;                                

RED OAK *      MOCLDY    70  57  64 MISG      29.97F                  
SHENANDOAH *   CLOUDY    70  57  64 SE12G18   29.97F                  
$$
 
IAZ047>049-059>061-072>074-084-140700-
   CENTRAL IOWA
  
CITY           SKY/WX    TMP DP  RH WIND       PRES   REMARKS
AMES           PTCLDY    66  56  70 NE3       30.02R                  
6HR MIN TEMP:  65; 6HR MAX TEMP:  77; 6HR PCP: TRACE;                

ANKENY *       CLOUDY    64  59  82 CALM      30.03S                  
BOONE *        CLOUDY    66  59  77 SE5       30.01S                  
CHARITON *     CLEAR     64  55  72 SE5       30.02R                  
DES MOINES     LGT RAIN  69  54  58 SE6       30.01R                  
6HR MIN TEMP:  68; 6HR MAX TEMP:  77; 6HR PCP: TRACE;                

GRINNELL*      CLOUDY    67  53  61 SE5       30.05R                  
KNOXVILLE *    CLOUDY    66  54  63 SE6       30.01R                  
MARSHALLTOWN   PTCLDY    67  55  65 SE3       30.03R                  
6HR MIN TEMP:  67; 6HR MAX TEMP:  79; 6HR PCP: TRACE;                

NEWTON *       CLOUDY    63  55  77 SE6       30.04R                  
PELLA *        CLOUDY    64  55  70 CALM      30.04R                  
$$
 
IAZ004>006-015-016-023>025-035-036-140700-
   NORTH CENTRAL IOWA
  
CITY           SKY/WX    TMP DP  RH WIND       PRES   REMARKS
ALGONA *       CLOUDY    66  55  68 SE5       30.02S                  
CLARION *      CLOUDY    66  57  72 SE6       30.03S                  
ESTHERVILLE    CLOUDY    61  54  77 S5        30.01S                  
6HR MIN TEMP:  61; 6HR MAX TEMP:  70; 6HR PCP: TRACE;                

FORT DODGE *   CLOUDY    64  61  90 E3        30.02                   
MASON CITY     CLOUDY    64  58  80 CALM      30.05S                  
6HR MIN TEMP:  63; 6HR MAX TEMP:  74;                                

FOREST CITY *  MOCLDY    61  57  88 CALM      30.04S                  
IOWA FALLS *   FAIR      65  57  76 SE3       30.05S                  
$$

IAZ007>011-017>019-026>030-037>042-050>054-066-140700-
   NORTHEAST IOWA
  
CITY           SKY/WX    TMP DP  RH WIND       PRES   REMARKS
CEDAR RAPIDS   FAIR      64  59  83 S3        30.03R                  
6HR MIN TEMP:  61; 6HR MAX TEMP:  78;                                

CHARLES CITY * FAIR      63  55  77 S6        30.05R                  
CLINTON *      FAIR      63  58  83 CALM      30.03F                  
DECORAH *      FAIR      61  57  88 CALM      30.03R                  
DUBUQUE        FAIR      63  56  78 CALM      30.04R                  
6HR MIN TEMP:  60; 6HR MAX TEMP:  73;                                

MONTICELLO *   MOCLDY    64  61  88 CALM      30.03R                  
OELWEIN *      CLOUDY    64  59  82 SW5       30.06R                  
WATERLOO       FAIR      66  55  67 S3        30.04R                  
6HR MIN TEMP:  64; 6HR MAX TEMP:  77;                                

$$
 
IAZ064-065-067-068-078-140700-
   EAST CENTRAL IOWA
  
CITY           SKY/WX    TMP DP  RH WIND       PRES   REMARKS
DAVENPORT      FAIR      63  57  81 SE5       30.03F                  
6HR MIN TEMP:  60; 6HR MAX TEMP:  76;                                

IOWA CITY      FAIR      68  56  65 SE3       30.04R                  
6HR MIN TEMP:  64; 6HR MAX TEMP:  79;                                

MUSCATINE *      N/A    N/A N/A N/A MISG        N/A                   
QUAD CITIES    FAIR      62  57  83 CALM      30.02F                  
6HR MIN TEMP:  59; 6HR MAX TEMP:  78;                                

$$
 
IAZ062-063-075>077-085>089-095>099-140700-
   SOUTHEAST IOWA
  
CITY           SKY/WX    TMP DP  RH WIND       PRES   REMARKS
BURLINGTON     CLEAR     67  52  58 CALM      30.03F                  
6HR MIN TEMP:  62; 6HR MAX TEMP:  80;                                

FAIRFIELD *    CLOUDY    64  52  63 SE7       30.01F                  
FORT MADISON * CLEAR     64  54  68 CALM      30.05S                  
KEOKUK *       CLEAR     64  52  63 SE8       30.02F                  
OSKALOOSA *    FAIR      62  55  77 SE6       30.03R                  
CENTERVILLE *    N/A     59  57  94 CALM      30.03F                  
OTTUMWA        CLOUDY    64  52  64 SE7       30.02S                  
6HR MIN TEMP:  60; 6HR MAX TEMP:  79;                                

WASHINGTON *   CLOUDY    64  57  77 SE5       30.04R                  
$$

ABBREVIATIONS USED IN REMARKS
   TC - TEMPERATURES IN CELSIUS
  WCI - WIND CHILL INDEX
   HX - HEAT INDEX
  VSB - VISIBILITY  
$$